User: anonymous   Login
Location: Caltech
(34.1382°N, 118.1253°W)
Time: 19:07:59
(UTC-07:00)
Language:

Cosmos 1025 Rocket - Orbit

View from above orbital plane
View from above orbital plane
View from above satellite
View from above satellite

Ground track
Ground track

The orbit data is extracted from the following two-line orbital elements,

1 10974U 78067B   17147.70996801 +.00000101 +00000-0 +83745-5 0  9993
2 10974 082.4823 188.5975 0018700 054.5325 305.7634 14.87230236104518
Epoch (UTC): 27 May 2017 17:02:21
Eccentricity: 0.0018700
inclination: 82.4823°
perigee height: 593 km
apogee height: 619 km
right ascension of ascending node: 188.5975°
argument of perigee: 54.5325°
revolutions per day: 14.87230236
mean anomaly at epoch: 305.7634°
orbit number at epoch: 10451

The dashed part of the orbit path shows where the satellite is in the earth's shadow,  

DLR